TimeCST,TemperatureF,Dew PointF,Humidity,Sea Level PressureIn,VisibilityMPH,Wind Direction,Wind SpeedMPH,Gust SpeedMPH,PrecipitationIn,Events,Conditions,WindDirDegrees,DateUTC
12:15 AM,9.5,2.7,74,30.21,10.0,West,8.1,-,N/A,,Clear,260,2014-02-24 06:15:00
12:35 AM,9.3,2.3,73,30.21,10.0,WSW,4.6,-,N/A,,Clear,250,2014-02-24 06:35:00
12:55 AM,9.0,2.1,74,30.21,10.0,West,5.8,-,N/A,,Clear,260,2014-02-24 06:55:00
1:15 AM,8.6,1.8,74,30.21,10.0,West,6.9,-,N/A,,Clear,260,2014-02-24 07:15:00
1:35 AM,8.6,1.6,73,30.21,10.0,WSW,5.8,-,N/A,,Clear,250,2014-02-24 07:35:00
1:55 AM,8.4,1.4,73,30.21,10.0,West,8.1,-,N/A,,Clear,260,2014-02-24 07:55:00
2:15 AM,7.7,0.9,74,30.21,10.0,West,5.8,-,N/A,,Clear,260,2014-02-24 08:15:00
2:35 AM,7.7,0.5,72,30.21,10.0,WSW,4.6,-,N/A,,Clear,250,2014-02-24 08:35:00
2:55 AM,6.8,0.5,75,30.21,10.0,WSW,3.5,-,N/A,,Clear,240,2014-02-24 08:55:00
3:15 AM,6.4,0.3,76,30.21,10.0,WSW,4.6,-,N/A,,Clear,240,2014-02-24 09:15:00
3:35 AM,6.6,0.3,75,30.21,10.0,WSW,4.6,-,N/A,,Clear,240,2014-02-24 09:35:00
3:55 AM,6.4,-0.0,75,30.21,10.0,WSW,5.8,-,N/A,,Clear,250,2014-02-24 09:55:00
4:15 AM,2.3,-3.5,77,30.22,10.0,Calm,Calm,-,N/A,,Clear,0,2014-02-24 10:15:00
4:35 AM,-2.4,-6.2,84,30.22,10.0,Calm,Calm,-,N/A,,Clear,0,2014-02-24 10:35:00
4:55 AM,-3.5,-6.9,85,30.23,10.0,Calm,Calm,-,N/A,,Clear,0,2014-02-24 10:55:00
4:58 AM,-4.0,-7.6,85,30.23,10.0,Calm,Calm,-,N/A,,Clear,0,2014-02-24 10:58:00
5:15 AM,-2.4,-5.4,87,30.23,10.0,Calm,Calm,-,N/A,,Clear,0,2014-02-24 11:15:00
5:19 AM,-2.2,-5.8,85,30.23,10.0,Calm,Calm,-,N/A,,Clear,0,2014-02-24 11:19:00
5:35 AM,-0.6,-3.5,88,30.24,10.0,West,4.6,-,N/A,,Clear,260,2014-02-24 11:35:00
5:39 AM,-0.4,-2.2,92,30.24,10.0,West,4.6,-,N/A,,Clear,260,2014-02-24 11:39:00
5:55 AM,3.2,-1.5,81,30.24,10.0,West,5.8,-,N/A,,Clear,260,2014-02-24 11:55:00
5:59 AM,3.2,-2.2,78,30.24,10.0,West,4.6,-,N/A,,Clear,260,2014-02-24 11:59:00
6:15 AM,3.6,-1.5,80,30.23,10.0,West,5.8,-,N/A,,Clear,260,2014-02-24 12:15:00
6:35 AM,3.4,-1.8,79,30.23,10.0,West,4.6,-,N/A,,Clear,270,2014-02-24 12:35:00
6:55 AM,3.2,-1.8,80,30.24,10.0,West,3.5,-,N/A,,Clear,260,2014-02-24 12:55:00
7:15 AM,3.2,-1.5,81,30.24,10.0,Calm,Calm,-,N/A,,Clear,0,2014-02-24 13:15:00
7:35 AM,3.9,-1.3,79,30.25,10.0,Calm,Calm,-,N/A,,Clear,0,2014-02-24 13:35:00
7:55 AM,5.0,-1.3,75,30.25,10.0,West,4.6,-,N/A,,Clear,260,2014-02-24 13:55:00
8:15 AM,5.9,-1.5,72,30.25,10.0,West,5.8,-,N/A,,Clear,270,2014-02-24 14:15:00
8:35 AM,6.8,-1.5,69,30.26,10.0,West,10.4,-,N/A,,Clear,270,2014-02-24 14:35:00
8:55 AM,7.7,-1.5,66,30.26,10.0,WNW,6.9,-,N/A,,Clear,290,2014-02-24 14:55:00
9:15 AM,8.4,-1.3,65,30.27,10.0,West,11.5,16.1,N/A,,Clear,260,2014-02-24 15:15:00
9:35 AM,9.5,-0.9,63,30.27,10.0,WNW,9.2,-,N/A,,Clear,290,2014-02-24 15:35:00
9:55 AM,10.2,-0.9,61,30.27,10.0,West,8.1,-,N/A,,Clear,270,2014-02-24 15:55:00
10:15 AM,10.9,-0.6,60,30.27,10.0,West,9.2,-,N/A,,Clear,270,2014-02-24 16:15:00
10:35 AM,11.7,-0.8,58,30.27,10.0,West,10.4,-,N/A,,Clear,270,2014-02-24 16:35:00
10:55 AM,12.6,-0.4,56,30.27,10.0,West,9.2,-,N/A,,Clear,270,2014-02-24 16:55:00
11:15 AM,12.9,-0.4,55,30.27,10.0,West,11.5,16.1,N/A,,Clear,280,2014-02-24 17:15:00
11:35 AM,13.6,-0.4,54,30.27,10.0,West,10.4,16.1,N/A,,Clear,270,2014-02-24 17:35:00
11:55 AM,14.0,-0.4,53,30.27,10.0,WNW,6.9,-,N/A,,Clear,290,2014-02-24 17:55:00
12:15 PM,14.5,0.5,54,30.26,10.0,West,9.2,-,N/A,,Clear,260,2014-02-24 18:15:00
12:35 PM,14.7,-0.0,52,30.26,10.0,West,10.4,17.3,N/A,,Clear,260,2014-02-24 18:35:00
12:55 PM,15.6,0.7,52,30.26,10.0,West,13.8,-,N/A,,Clear,260,2014-02-24 18:55:00
1:10 PM,15.6,0.3,51,30.26,10.0,West,9.2,-,N/A,,Clear,270,2014-02-24 19:10:00
1:35 PM,16.7,0.1,48,30.25,10.0,WSW,10.4,18.4,N/A,,Clear,250,2014-02-24 19:35:00
1:55 PM,17.4,1.6,50,30.25,10.0,WNW,10.4,17.3,N/A,,Clear,300,2014-02-24 19:55:00
2:15 PM,17.6,1.2,49,30.24,10.0,West,9.2,-,N/A,,Clear,270,2014-02-24 20:15:00
2:30 PM,17.6,0.9,48,30.24,10.0,West,10.4,-,N/A,,Clear,280,2014-02-24 20:30:00
2:55 PM,18.1,0.7,47,30.24,10.0,WSW,8.1,-,N/A,,Clear,240,2014-02-24 20:55:00
3:15 PM,17.6,0.9,48,30.23,10.0,West,12.7,16.1,N/A,,Clear,260,2014-02-24 21:15:00
3:35 PM,18.1,0.7,47,30.23,10.0,West,9.2,16.1,N/A,,Clear,260,2014-02-24 21:35:00
3:50 PM,17.6,0.3,47,30.24,10.0,West,10.4,-,N/A,,Clear,270,2014-02-24 21:50:00
4:15 PM,17.1,0.3,48,30.24,10.0,West,9.2,16.1,N/A,,Clear,260,2014-02-24 22:15:00
4:35 PM,16.3,1.0,51,30.23,10.0,WNW,8.1,-,N/A,,Clear,300,2014-02-24 22:35:00
4:55 PM,15.6,0.7,52,30.23,10.0,West,6.9,-,N/A,,Clear,280,2014-02-24 22:55:00
5:15 PM,15.3,0.7,53,30.23,10.0,West,8.1,-,N/A,,Clear,270,2014-02-24 23:15:00
5:35 PM,14.5,0.7,54,30.24,10.0,West,8.1,-,N/A,,Clear,280,2014-02-24 23:35:00
5:55 PM,14.0,1.0,56,30.23,10.0,West,6.9,-,N/A,,Scattered Clouds,280,2014-02-24 23:55:00
6:15 PM,13.8,1.2,57,30.23,10.0,West,4.6,-,N/A,,Scattered Clouds,280,2014-02-25 00:15:00
6:35 PM,13.5,1.0,58,30.23,10.0,West,5.8,-,N/A,,Mostly Cloudy,280,2014-02-25 00:35:00
6:50 PM,13.1,1.4,60,30.24,10.0,West,3.5,-,N/A,,Mostly Cloudy,270,2014-02-25 00:50:00
7:15 PM,12.7,1.2,60,30.25,10.0,West,4.6,-,N/A,,Mostly Cloudy,260,2014-02-25 01:15:00
7:35 PM,12.7,1.2,60,30.25,10.0,West,6.9,-,N/A,,Overcast,270,2014-02-25 01:35:00
7:55 PM,12.4,1.0,61,30.26,10.0,West,5.8,-,N/A,,Overcast,270,2014-02-25 01:55:00
8:15 PM,12.0,1.0,61,30.25,10.0,West,6.9,-,N/A,,Overcast,280,2014-02-25 02:15:00
8:35 PM,11.8,0.7,61,30.25,10.0,West,6.9,-,N/A,,Overcast,280,2014-02-25 02:35:00
8:55 PM,11.5,0.9,62,30.26,10.0,West,4.6,-,N/A,,Overcast,280,2014-02-25 02:55:00
9:15 PM,11.3,0.7,62,30.26,10.0,West,3.5,-,N/A,,Overcast,270,2014-02-25 03:15:00
9:35 PM,11.3,1.0,63,30.27,10.0,West,5.8,-,N/A,,Overcast,270,2014-02-25 03:35:00
9:55 PM,11.3,1.2,64,30.27,10.0,West,4.6,-,N/A,,Overcast,270,2014-02-25 03:55:00
10:15 PM,11.3,1.4,64,30.27,10.0,West,4.6,-,N/A,,Overcast,270,2014-02-25 04:15:00
10:35 PM,11.3,1.4,64,30.26,10.0,West,4.6,-,N/A,,Overcast,280,2014-02-25 04:35:00
10:55 PM,11.3,1.8,66,30.27,10.0,West,5.8,-,N/A,,Overcast,270,2014-02-25 04:55:00
11:15 PM,11.3,1.9,66,30.26,10.0,West,5.8,-,N/A,,Overcast,270,2014-02-25 05:15:00
11:35 PM,11.3,2.7,68,30.26,7.0,West,5.8,-,N/A,Snow,Light Snow,270,2014-02-25 05:35:00
11:55 PM,10.8,4.1,75,30.26,4.0,West,3.5,-,N/A,Snow,Light Snow,270,2014-02-25 05:55:00